Regional Weather Roundup
Issued by NWS

Home | Current Version | Previous Version | Graphics & Text | Print | Product List | Glossary On
Versions: 1 2 3 4 5 6 7 8 9 10 11 12 13 14 15 16 17 18 19 20 21 22 23 24 25 26 27 28 29 30 31 32 33 34 35 36 37 38 39 40 41 42 43 44 45 46 47 48 49 50
000
ASUS43 KBIS 200220
RWRND

NORTH DAKOTA REGIONAL WEATHER ROUNDUP
NATIONAL WEATHER SERVICE BISMARCK ND
900 PM CDT SAT APR 19 2014

NOTE: "FAIR" INDICATES FEW OR NO CLOUDS BELOW 12,000 FEET WITH NO
SIGNIFICANT WEATHER AND/OR OBSTRUCTIONS TO VISIBILITY.


NDZ001>003-009>011-017-200300-
NORTHWEST NORTH DAKOTA

CITY           SKY/WX    TMP DP  RH WIND       PRES   REMARKS
WILLISTON      CLEAR     42  32  67 CALM      29.90F
MINOT          CLEAR     43  33  68 CALM      29.94R
MINOT AFB      CLEAR     46  35  65 N3        29.94R
$$

NDZ018>021-031>035-040>046-200300-
SOUTHWEST NORTH DAKOTA

CITY           SKY/WX    TMP DP  RH WIND       PRES   REMARKS
BISMARCK       CLEAR     54  34  46 NE5       29.97R
DICKINSON      CLEAR     53  28  38 S3        29.93S
GARRISON         N/A     47  33  58 N6        29.94S
HETTINGER ARPT CLEAR     49  23  36 CALM      29.97S
$$

NDZ004>008-012>016-024-026-027-054-200300-
NORTHEAST NORTH DAKOTA

CITY           SKY/WX    TMP DP  RH WIND       PRES   REMARKS
GRAND FORKS    CLEAR     45  36  70 W7        29.97R
GRND FRKS AFB  CLEAR     47  35  63 NW7       29.98R
DEVILS LAKE    CLEAR     39  30  70 W7        29.98R
$$

NDZ022-023-025-028>030-036>039-047>053-200300-
SOUTHEAST NORTH DAKOTA

CITY           SKY/WX    TMP DP  RH WIND       PRES   REMARKS
FARGO          CLEAR     54  39  57 N9        29.96R
JAMESTOWN      CLEAR     49  37  63 NW12      29.96R
$$




USA.gov is the U.S. government's official web portal to all federal, state and local government web resources and services.